Showing default

HULIANWANG DIGUI-15, 62975

Orbit data source: Space-Track

HULIANWANG DIGUI-15, 62975 is a payload satellite owned by Zhongguo Xingwang (CN) in LEO that was launched on Tue, 11 Feb 2025 UTC via a CHANG ZHENG 8A launch vehicle from the Wenchang Satellite Launch Center (WSC). Payload-class satellites include a variety of spacecraft equipped with specific instruments for various scientific and technological missions. These include communications satellites like Starlink; space stations such as the ISS; scientific satellites like the Hubble; Earth observation satellites from companies like Planet Labs, Umbra, and HawkEye 360; GPS; miniature CubeSats for education and research; and military/defense satellites.

Loading next visibility...
Identifier
62975, 2025-030E
Orbit
LEO
Country
Flag of CNCN / PRC
Related business
Manufacturer
CAST
Mission
Operational Civil Communications
Bus & Motor
GUOWANG C, Unknown motor
Mass
~800 kg wet, ~800 kg dry
Launch date (UTC)
2025-02-11 (8 months ago)
Launch vehicle
CHANG ZHENG 8A
Launch site
Wenchang Satellite Launch Center (WSC)
Object type
Payload
Rocket body
Debris
Shape & HBR
Box + 2 Pan, 2.1 m
Radar Cross Section
5.935 m², Large (>1 m²)

Expand to show TLE details & history
Last TLE update: 4 hours ago

TLE from 4 hours ago
0 HULIANWANG DIGUI-15
1 62975U 25030E   25299.18558493 -.00000068  00000-0  12167-3 0  9994
2 62975  50.0049 355.0333 0000997 194.9323 165.1519 13.29325758 34737
Epoch: 2025-10-26T04:27Z
TLE epoch observation values (Epoch: 2025-10-26T04:27:14.537Z)
Latitude
-0.0001°
Longitude
-106.58276°
Altitude
1,150.539 km
Speed
7.279 km/s
True Right ascension
23h 40m 07s
True Declination
0° 00' 00"
Sunlit
Object was in full shadow at epoch
Visualization orbit readout
Latitude
Unknown
Longitude
Unknown
Altitude
Unknown
Speed
Unknown
Apparent Right ascension
Unknown
Apparent Declination
Unknown
Sunlit
N/A
Visualization observer readout
Local Sidereal Time
04:11:05
Azimuth
Unknown
Elevation
Unknown
Doppler factor
Unknown
Orbital elements
Apogee altitude
1,150.763 km
Perigee altitude
1,149.262 km
Semi-major axis
7,528.149 km
Eccentricity
0.0001
Inclination
50.0049°
RAAN
355.0333°
Arg. of periapsis
194.9323°
True anomaly
165.15483°
Mean anomaly
165.1519°
Eccentric anomaly
165.15336°
Mean motion
3.32285 °/min
Orbital period
108.34 mins
BSTAR
0.00012167
Loading maneuver chart data...
Computing Atmospheric mass density...
Loading historical data...
Loading historical data...
Loading historical data...
Loading historical data...
Loading historical data...
Loading historical data...
Loading historical data...

Documentation

Showing up to 5 results
|